Location: Capvern
(43.1036°N, 0.3160°E)
Time: 04:07:52
(UTC+00:00)

SL-16 R/B - Pass Details

Date: 16 October 2021
Orbit: 842 x 846 km, 71.0° (Epoch: 02 December)

Event Time Altitude Azimuth Distance (km) Brightness Sun altitude
Rises 19:44:44 0° 204° (SSW) 3,385 5.5 -28.1°
Reaches altitude 10° 19:47:09 10° 205° (SSW) 2,454 4.7 -28.5°
Enters shadow 19:51:15 50° 209° (SSW) 1,064 2.7 -29.2°
